Regional Weather Roundup
Issued by NWS

Home | Current Version | Previous Version | Text Only | Print | Product List | Glossary Off
Versions: 1 2 3 4 5 6 7 8 9 10 11 12 13 14 15 16 17 18 19 20 21 22 23 24 25 26 27 28 29 30 31 32 33 34 35 36 37 38 39 40 41 42 43 44 45 46 47 48 49 50

000
ASUS43 KDTX 250710
RWRMI
MICHIGAN HOURLY REGIONAL WEATHER ROUNDUP
NATIONAL WEATHER SERVICE DETROIT/PONTIAC MI
300 AM EDT FRI JUL 25 2014

NOTE: "FAIR" INDICATES FEW OR NO CLOUDS BELOW 12,000 FEET WITH NO
SIGNIFICANT WEATHER AND/OR OBSTRUCTION TO VISIBILITY.

MIZ047>049-052>055-059>063-066>070-074>076-081>083-250800-
SOUTHEAST LOWER MICHIGAN

CITY           SKY/WX    TMP DP  RH WIND       PRES   REMARKS
ADRIAN         CLEAR     54  50  86 CALM      30.06F
ALMA           PTCLDY    52  50  93 CALM      30.05F
ANN ARBOR      CLEAR     46  45  96 CALM      30.05S FOG
BAD AXE        CLEAR     48  45  90 CALM      30.05S
DETROIT CITY   CLEAR     60  50  69 CALM      30.05F
DETROIT        PTCLDY    59  52  77 SE3       30.05F
FLINT          CLEAR     56  50  80 S3        30.05S
GROSSE ILE     CLEAR     61  55  82 CALM      30.04F
HILLSDALE      CLEAR     51  51  99 CALM      30.06S
HOWELL         CLEAR     53  50  90 W6        30.05S

CITY           SKY/WX    TMP DP  RH WIND       PRES   REMARKS
JACKSON        PTCLDY    53  51  93 CALM      30.06S
LAMBERTVILLE   CLEAR     54  52  94 CALM      30.06F
LANSING        PTCLDY    55  52  89 CALM      30.06F
LAPEER         NOT AVBL
MASON          PTCLDY    51  49  95 CALM      30.06S
MONROE         CLEAR     55  52  88 CALM      30.03F FOG
MT. CLEMENS    CLEAR     52  47  84 CALM      30.04F
PONTIAC        CLEAR     54  48  80 CALM      30.05F
PORT HOPE        N/A     59  45  59 SW6       30.02F
PORT HURON     FOG       45  45 100 CALM      30.05F VSB 1/2
TRI CITIES     CLEAR     58  52  80 SW7       30.05S
YPSILANTI      CLEAR     57  51  80 CALM      30.05F
$$
MIZ043>046-050>051-056>058-064>065-071>073-077>080-250800-
SOUTHWEST LOWER MICHIGAN

CITY           SKY/WX    TMP DP  RH WIND       PRES   REMARKS
BATTLE CREEK   CLEAR     54  49  83 CALM      30.06F
BENTON HARBOR  CLEAR     49  48  97 CALM      30.05F
BIG RAPIDS     MOCLDY    51  48  90 CALM      30.04F
COLDWATER      CLEAR     55  53  94 CALM      30.06S
HOLLAND        PTCLDY    52  49  89 CALM      30.05F
GRAND RAPIDS   PTCLDY    56  52  86 S3        30.05F
KALAMAZOO      CLEAR     54  49  83 CALM      30.06F
MARSHALL       CLEAR     51  50  98 CALM      30.05F
MUSKEGON       PTCLDY    54  49  83 CALM      30.06S
$$
MIZ016>042-250800-
NORTHERN LOWER MICHIGAN

CITY           SKY/WX    TMP DP  RH WIND       PRES   REMARKS
ALPENA         CLEAR     53  51  93 W5        30.02F
BEAVER ISLAND  CLEAR     58  53  85 SW9       30.00F
BELLAIRE       CLEAR     47  46  95 CALM      30.02F
CADILLAC       PTCLDY    46  46 100 CALM      30.04F
CHARLEVOIX     CLEAR     52  50  93 CALM      30.03F
FRANKFORT      MOSUNNY   53  49  87 CALM      30.02F
GAYLORD        CLEAR     50  47  89 CALM      30.03F
GRAYLING       CLEAR     45  45 100 CALM      30.04F FOG
HARBOR SPRINGS CLEAR     51  49  90 CALM      30.01F
HOUGHTON LAKE  CLEAR     47  46  97 CALM      30.04F
MANISTEE       PTCLDY    48  45  87 E3        30.04S
OSCODA         CLEAR     52  48  87 CALM      30.02S
PELLSTON       CLEAR     43  42  97 CALM      30.01F
TRAVERSE CITY  CLEAR     52  47  83 CALM      30.01F
$$
MIZ007>008-015-250800-
EASTERN UPPER MICHIGAN

CITY           SKY/WX    TMP DP  RH WIND       PRES   REMARKS
KINROSS        CLEAR     52  52 100 CALM      29.99F
MACKINAC ISLAN CLEAR     57  55  94 SW8       30.00S
NEWBERRY       CLEAR     53  47  80 SW9       29.99R
S. S. MARIE    CLEAR     51  48  89 CALM      29.99F
$$
MIZ004>006-011>014-085-250800-
CENTRAL UPPER MICHIGAN

CITY           SKY/WX    TMP DP  RH WIND       PRES   REMARKS
MANISTIQUE     CLOUDY    58  52  78 SW6       29.98F
ESCANABA       MOCLDY    57  46  67 SW6       29.98S
MENOMINEE      PTCLDY    63  48  59 SW10      29.99R
SAWYER-GWINN   PTCLDY    54  51  87 S5        29.97F
$$
MIZ001>003-009>011-084-250800-
WESTERN UPPER MICHIGAN

CITY           SKY/WX    TMP DP  RH WIND       PRES   REMARKS
IRON MOUNTAIN  PTCLDY    61  53  75 SW5       29.98S
HOUGHTON       MOCLDY    56  51  84 CALM      29.93F
COPPER HARBOR    N/A     62  48  60 SW8       29.91F
$$

ABBREVIATIONS USED IN REMARKS
   TC - TEMPERATURE IN CELSIUS
  WCI - WIND CHILL INDEX
   HX - HEAT INDEX
  VSB - VISIBILITY




USA.gov is the U.S. government's official web portal to all federal, state and local government web resources and services.